Weather History for Colorado Springs, CO

Change the Weather History Date:

Tuesday, February 25, 2014

  Actual Average Record
Temperature  
Mean Temperature 32 °F 34 °F  
Max Temperature 51 °F 47 °F 71 °F (1986)
Min Temperature 13 °F 21 °F -4 °F (1960)
Degree Days  
Heating Degree Days 33 31  
Month to date heating degree days 869 827  
Since 1 July heating degree days 4405 4470  
Cooling Degree Days 0 0  
Month to date cooling degree days 0 0  
Year to date cooling degree days 0 0  
Moisture  
Dew Point 14 °F    
Average Humidity 64    
Maximum Humidity 92    
Minimum Humidity 36    
Precipitation  
Precipitation T in 0.02 in 0.50 in (1947)
Month to date precipitation 0.22 0.29  
Year to date precipitation 0.89 0.61  
Snow  
Snow T in 0.20 in 5.50 in (1947)
Month to date snowfall 2.6 4.4  
Since 1 July snowfall 23.3 23.5  
Snow Depth 0.00 in    
Sea Level Pressure  
Sea Level Pressure 30.15 in    
Wind  
Wind Speed 12 mph (NNE)    
Max Wind Speed 28 mph    
Max Gust Speed 33 mph    
Visibility 8 miles    
Events Snow    
T = Trace of Precipitation, MM = Missing Value Source: NWS Daily Summary

Daily Weather History Graph

Daily Weather History Graph

Search for Another Location

Airport:

Trip Planner

Search our weather history database for the weather conditions in past years. The results will help you decide how hot, cold, wet, or windy it might be!

Date:

Astronomy

Feb. 25, 2014 Rise Set
Actual Time 6:36 AM MST 5:47 PM MST
Civil Twilight 6:09 AM MST 6:14 PM MST
Nautical Twilight 5:38 AM MST 6:45 PM MST
Astronomical Twilight 5:08 AM MST 7:16 PM MST
Moon 3:32 AM MST (2/25) 1:57 PM MST (2/25)
Length of Visible Light 12h 04m
Length of Day
11h 10m
Waning Crescent, 17% of the Moon is Illuminated
Feb 25
Waning Crescent
Mar 1
New
Mar 8
First Quarter
Mar 16
Full
Mar 23
Last Quarter

Hourly Weather History & Observations

Time (MST) Temp. Windchill Dew Point Humidity Pressure Visibility Wind Dir Wind Speed Gust Speed Precip Events Conditions
12:36 AM 21.0 °F 8.6 °F 17.1 °F 85% 30.17 in 10.0 mi SSE 12.7 mph - N/A   Mostly Cloudy
12:54 AM 19.9 °F 6.2 °F 17.1 °F 89% 30.18 in 10.0 mi SSE 15.0 mph - N/A   Mostly Cloudy
1:20 AM 19.9 °F 6.7 °F 17.1 °F 89% 30.15 in 10.0 mi SSE 13.8 mph - N/A   Mostly Cloudy
1:54 AM 19.0 °F 5.6 °F 16.0 °F 88% 30.14 in 5.0 mi SSE 13.8 mph - N/A   Overcast
2:54 AM 18.0 °F 8.7 °F 16.0 °F 92% 30.09 in 5.0 mi ESE 6.9 mph - N/A   Overcast
3:54 AM 17.1 °F 7.6 °F 15.1 °F 92% 30.06 in 4.0 mi SSE 6.9 mph - N/A   Overcast
4:13 AM 18.0 °F 12.7 °F 15.1 °F 88% 30.05 in 4.0 mi East 3.5 mph - N/A   Overcast
4:54 AM 18.0 °F 12.7 °F 15.1 °F 88% 30.05 in 4.0 mi ESE 3.5 mph - N/A   Overcast
5:44 AM 18.0 °F - 15.1 °F 88% 30.02 in 5.0 mi Calm Calm - N/A   Overcast
5:54 AM 18.0 °F - 15.1 °F 88% 30.04 in 5.0 mi Calm Calm - N/A   Overcast
6:54 AM 18.0 °F 12.7 °F 15.1 °F 88% 30.13 in 4.0 mi Variable 3.5 mph - N/A   Mostly Cloudy
7:54 AM 19.9 °F 13.4 °F 17.1 °F 89% 30.14 in 6.0 mi West 4.6 mph - N/A   Mostly Cloudy
8:54 AM 26.1 °F - 18.0 °F 71% 30.09 in 8.0 mi Calm Calm - N/A   Scattered Clouds
9:54 AM 33.1 °F 30.0 °F 19.0 °F 56% 30.06 in 8.0 mi Variable 3.5 mph - N/A   Scattered Clouds
10:54 AM 37.9 °F 32.7 °F 19.0 °F 47% 30.03 in 10.0 mi South 6.9 mph - N/A   Scattered Clouds
11:45 AM 44.1 °F 39.5 °F 19.9 °F 38% 29.92 in 10.0 mi South 8.1 mph - N/A   Scattered Clouds
11:54 AM 43.0 °F 38.2 °F 19.9 °F 40% 29.99 in 10.0 mi SE 8.1 mph - N/A   Scattered Clouds
12:54 PM 50.0 °F - 24.1 °F 36% 29.98 in 10.0 mi North 15.0 mph - N/A   Scattered Clouds
1:04 PM 50.0 °F - 23.0 °F 35% 29.93 in 10.0 mi North 11.5 mph - N/A   Scattered Clouds
1:54 PM 39.0 °F 29.9 °F 18.0 °F 43% 30.04 in 7.0 mi North 17.3 mph 27.6 mph N/A   Scattered Clouds
2:52 PM 33.8 °F 22.5 °F 17.6 °F 52% 29.98 in 7.0 mi North 19.6 mph 26.5 mph N/A   Scattered Clouds
2:54 PM 32.0 °F 19.8 °F 17.1 °F 54% 30.13 in 7.0 mi North 20.7 mph 26.5 mph N/A   Scattered Clouds
3:54 PM 26.1 °F 13.1 °F 15.1 °F 63% 30.20 in 7.0 mi North 17.3 mph - N/A   Scattered Clouds
4:54 PM 21.9 °F 6.2 °F 12.0 °F 66% 30.26 in 7.0 mi North 21.9 mph 27.6 mph N/A   Scattered Clouds
5:46 PM 19.0 °F 4.0 °F 9.0 °F 65% 30.10 in 7.0 mi NNW 17.3 mph - N/A   Mostly Cloudy
5:54 PM 19.0 °F 3.2 °F 9.0 °F 65% 30.32 in 7.0 mi NNW 19.6 mph 26.5 mph N/A   Overcast
6:54 PM 18.0 °F 0.9 °F 8.1 °F 65% 30.40 in 7.0 mi North 21.9 mph - 0.00 in Snow Light Snow
7:54 PM 17.1 °F -0.3 °F 6.1 °F 62% 30.43 in 8.0 mi NNW 21.9 mph 26.5 mph 0.00 in Snow Light Snow
8:54 PM 16.0 °F -1.7 °F 5.0 °F 62% 30.43 in 8.0 mi NNW 21.9 mph 32.2 mph 0.00 in Snow Light Snow
9:37 PM 16.0 °F 0.6 °F 5.0 °F 62% 30.24 in 8.0 mi NNW 16.1 mph 21.9 mph 0.00 in Snow Light Snow
9:54 PM 16.0 °F 1.1 °F 5.0 °F 62% 30.40 in 8.0 mi NNW 15.0 mph - 0.00 in Snow Light Snow
10:54 PM 16.0 °F 3.6 °F 5.0 °F 62% 30.36 in 10.0 mi WSW 10.4 mph - 0.00 in   Overcast
11:54 PM 12.9 °F -0.2 °F 7.0 °F 77% 30.32 in 10.0 mi South 10.4 mph - N/A   Clear